Location: Del Amo
(33.8464°N, 118.2104°W)
Time: 20:12:13
(UTC+00:00)

CAS-4B - Visible Passes

Search period start: 07 October 2024 00:00
Search period end: 17 October 2024 00:00
Orbit: 452 x 469 km, 43.0° (Epoch: 07 October)

Date Brightness Start Highest point End Pass type
(mag) Time Alt. Az. Time Alt. Az. Time Alt. Az.
07 Oct ? 11:24:42 16° E 11:24:42 16° E 11:25:39 10° E visible
07 Oct ? 12:58:31 19° W 13:00:42 40° SW 13:04:08 10° SE visible
08 Oct ? 12:25:44 47° SSW 12:25:44 47° SSW 12:29:13 10° SE visible
09 Oct ? 11:52:57 20° SE 11:52:57 20° SE 11:54:10 10° SE visible
13 Oct ? 02:50:50 10° SSW 02:52:46 22° S 02:52:46 22° S visible
14 Oct ? 02:15:28 10° SSW 02:18:19 22° SE 02:19:22 20° ESE visible
14 Oct ? 03:52:59 10° WSW 03:53:08 11° WSW 03:53:08 11° WSW visible
15 Oct ? 01:40:04 10° S 01:42:38 19° SE 01:45:13 10° E visible
15 Oct ? 03:17:11 10° WSW 03:19:30 36° W 03:19:30 36° W visible
16 Oct ? 02:41:18 10° WSW 02:44:53 75° NNW 02:45:39 51° NE visible
